TimeCDT,TemperatureF,Dew PointF,Humidity,Sea Level PressureIn,VisibilityMPH,Wind Direction,Wind SpeedMPH,Gust SpeedMPH,PrecipitationIn,Events,Conditions,WindDirDegrees,DateUTC
12:15 AM,39.2,35.6,87,30.01,7.0,Calm,Calm,-,N/A,,Unknown,0,2013-09-21 05:15:00
12:35 AM,37.4,35.6,93,30.01,7.0,Calm,Calm,-,N/A,,Unknown,0,2013-09-21 05:35:00
12:55 AM,37.4,35.6,93,30.01,7.0,Calm,Calm,-,N/A,,Unknown,0,2013-09-21 05:55:00
1:15 AM,39.2,37.4,93,30.01,10.0,Calm,Calm,-,N/A,,Unknown,0,2013-09-21 06:15:00
1:35 AM,37.4,35.6,93,30.01,10.0,Calm,Calm,-,N/A,,Unknown,0,2013-09-21 06:35:00
1:55 AM,37.4,35.6,93,30.01,10.0,Calm,Calm,-,N/A,,Unknown,0,2013-09-21 06:55:00
2:15 AM,37.4,35.6,93,30.01,10.0,Calm,Calm,-,N/A,,Unknown,0,2013-09-21 07:15:00
2:35 AM,37.4,35.6,93,30.01,10.0,Calm,Calm,-,N/A,,Unknown,0,2013-09-21 07:35:00
2:55 AM,37.4,35.6,93,30.00,10.0,Calm,Calm,-,N/A,,Unknown,0,2013-09-21 07:55:00
3:15 AM,37.4,35.6,93,30.00,10.0,Calm,Calm,-,N/A,,Unknown,0,2013-09-21 08:15:00
3:35 AM,35.6,35.6,100,30.00,10.0,Calm,Calm,-,N/A,,Unknown,0,2013-09-21 08:35:00
3:55 AM,37.4,35.6,93,30.00,10.0,Calm,Calm,-,N/A,,Unknown,0,2013-09-21 08:55:00
4:15 AM,35.6,33.8,93,30.00,10.0,Calm,Calm,-,N/A,,Unknown,0,2013-09-21 09:15:00
4:35 AM,35.6,35.6,100,30.00,10.0,Calm,Calm,-,N/A,,Unknown,0,2013-09-21 09:35:00
4:55 AM,35.6,33.8,93,30.00,10.0,Calm,Calm,-,N/A,,Unknown,0,2013-09-21 09:55:00
5:15 AM,33.8,33.8,100,30.00,10.0,Calm,Calm,-,N/A,,Unknown,0,2013-09-21 10:15:00
5:35 AM,33.8,32.0,93,30.01,10.0,Calm,Calm,-,N/A,,Unknown,0,2013-09-21 10:35:00
5:55 AM,35.6,33.8,93,30.00,10.0,Calm,Calm,-,N/A,,Unknown,0,2013-09-21 10:55:00
6:15 AM,33.8,32.0,93,30.00,10.0,Calm,Calm,-,N/A,,Unknown,0,2013-09-21 11:15:00
6:35 AM,35.6,33.8,93,30.01,10.0,Calm,Calm,-,N/A,,Unknown,0,2013-09-21 11:35:00
6:55 AM,33.8,32.0,93,30.01,10.0,Calm,Calm,-,N/A,,Unknown,0,2013-09-21 11:55:00
7:15 AM,35.6,33.8,93,30.01,10.0,Calm,Calm,-,N/A,,Unknown,0,2013-09-21 12:15:00
7:35 AM,33.8,32.0,93,30.02,10.0,Calm,Calm,-,N/A,,Unknown,0,2013-09-21 12:35:00
7:55 AM,35.6,35.6,100,30.01,10.0,Calm,Calm,-,N/A,,Unknown,0,2013-09-21 12:55:00
8:15 AM,39.2,37.4,93,30.01,10.0,Calm,Calm,-,N/A,,Unknown,0,2013-09-21 13:15:00
8:35 AM,41.0,37.4,87,30.02,10.0,Calm,Calm,-,N/A,,Unknown,0,2013-09-21 13:35:00
8:55 AM,42.8,39.2,87,30.02,10.0,Calm,Calm,-,N/A,,Unknown,0,2013-09-21 13:55:00
9:15 AM,46.4,39.2,76,30.01,10.0,Calm,Calm,-,N/A,,Unknown,0,2013-09-21 14:15:00
9:35 AM,50.0,41.0,71,30.02,10.0,Calm,Calm,-,N/A,,Unknown,0,2013-09-21 14:35:00
9:55 AM,53.6,42.8,67,30.02,10.0,Calm,Calm,-,N/A,,Unknown,0,2013-09-21 14:55:00
10:15 AM,57.2,42.8,59,30.02,10.0,South,3.5,-,N/A,,Unknown,180,2013-09-21 15:15:00
10:35 AM,59.0,42.8,55,30.01,10.0,Calm,Calm,-,N/A,,Unknown,0,2013-09-21 15:35:00
10:55 AM,62.6,42.8,48,30.01,10.0,SSW,3.5,-,N/A,,Unknown,210,2013-09-21 15:55:00
11:15 AM,62.6,42.8,48,30.01,10.0,SSW,4.6,-,N/A,,Unknown,200,2013-09-21 16:15:00
11:35 AM,64.4,41.0,42,30.00,10.0,SSW,5.8,-,N/A,,Unknown,200,2013-09-21 16:35:00
11:55 AM,66.2,37.4,35,30.00,10.0,SW,3.5,-,N/A,,Unknown,220,2013-09-21 16:55:00
12:15 PM,66.2,37.4,35,30.00,10.0,South,5.8,-,N/A,,Unknown,190,2013-09-21 17:15:00
12:35 PM,68.0,37.4,33,29.99,10.0,SSW,6.9,-,N/A,,Unknown,210,2013-09-21 17:35:00
12:55 PM,69.8,37.4,31,29.98,10.0,Calm,Calm,-,N/A,,Unknown,0,2013-09-21 17:55:00
1:15 PM,69.8,37.4,31,29.97,10.0,Calm,Calm,-,N/A,,Unknown,0,2013-09-21 18:15:00
1:35 PM,69.8,37.4,31,29.96,10.0,Calm,Calm,-,N/A,,Unknown,0,2013-09-21 18:35:00
1:55 PM,71.6,37.4,29,29.95,10.0,South,4.6,-,N/A,,Unknown,170,2013-09-21 18:55:00
2:15 PM,71.6,39.2,31,29.94,10.0,SSW,4.6,-,N/A,,Unknown,200,2013-09-21 19:15:00
2:35 PM,71.6,39.2,31,29.93,10.0,SSW,4.6,-,N/A,,Unknown,210,2013-09-21 19:35:00
2:55 PM,73.4,39.2,29,29.92,10.0,South,10.4,-,N/A,,Unknown,170,2013-09-21 19:55:00
3:15 PM,73.4,39.2,29,29.91,10.0,South,9.2,-,N/A,,Unknown,190,2013-09-21 20:15:00
3:35 PM,73.4,39.2,29,29.90,10.0,South,6.9,-,N/A,,Unknown,170,2013-09-21 20:35:00
3:55 PM,73.4,41.0,31,29.89,10.0,South,9.2,-,N/A,,Unknown,190,2013-09-21 20:55:00
4:15 PM,73.4,41.0,31,29.89,10.0,South,10.4,-,N/A,,Unknown,190,2013-09-21 21:15:00
4:35 PM,73.4,42.8,33,29.88,10.0,South,10.4,-,N/A,,Unknown,180,2013-09-21 21:35:00
4:55 PM,73.4,42.8,33,29.87,10.0,SSE,9.2,-,N/A,,Unknown,160,2013-09-21 21:55:00
5:15 PM,73.4,42.8,33,29.87,10.0,South,10.4,-,N/A,,Unknown,180,2013-09-21 22:15:00
5:35 PM,73.4,44.6,36,29.87,10.0,South,9.2,-,N/A,,Unknown,180,2013-09-21 22:35:00
5:55 PM,73.4,44.6,36,29.87,10.0,South,10.4,-,N/A,,Unknown,180,2013-09-21 22:55:00
6:15 PM,71.6,44.6,38,29.87,10.0,South,9.2,-,N/A,,Unknown,180,2013-09-21 23:15:00
6:35 PM,71.6,44.6,38,29.87,10.0,South,8.1,-,N/A,,Unknown,180,2013-09-21 23:35:00
6:55 PM,69.8,46.4,43,29.87,10.0,South,8.1,-,N/A,,Unknown,170,2013-09-21 23:55:00
7:15 PM,68.0,46.4,46,29.86,10.0,SSE,5.8,-,N/A,,Unknown,150,2013-09-22 00:15:00
7:35 PM,66.2,46.4,49,29.86,10.0,SE,4.6,-,N/A,,Unknown,140,2013-09-22 00:35:00
7:55 PM,64.4,48.2,56,29.86,10.0,SE,4.6,-,N/A,,Unknown,140,2013-09-22 00:55:00
8:15 PM,64.4,46.4,52,29.86,10.0,SE,5.8,-,N/A,,Unknown,140,2013-09-22 01:15:00
8:35 PM,62.6,48.2,59,29.86,10.0,SE,4.6,-,N/A,,Unknown,130,2013-09-22 01:35:00
8:55 PM,62.6,48.2,59,29.86,10.0,SE,5.8,-,N/A,,Unknown,140,2013-09-22 01:55:00
9:15 PM,60.8,48.2,63,29.86,10.0,SE,5.8,-,N/A,,Unknown,140,2013-09-22 02:15:00
9:35 PM,60.8,48.2,63,29.86,10.0,SSE,5.8,-,N/A,,Unknown,150,2013-09-22 02:35:00
9:55 PM,60.8,48.2,63,29.86,10.0,SSE,4.6,-,N/A,,Unknown,150,2013-09-22 02:55:00
10:15 PM,60.8,48.2,63,29.86,10.0,SE,5.8,-,N/A,,Unknown,140,2013-09-22 03:15:00
10:35 PM,60.8,48.2,63,29.86,10.0,SE,4.6,-,N/A,,Unknown,140,2013-09-22 03:35:00
10:55 PM,59.0,48.2,67,29.86,10.0,SSE,6.9,-,N/A,,Unknown,150,2013-09-22 03:55:00
11:15 PM,60.8,48.2,63,29.86,10.0,SSE,10.4,-,N/A,,Unknown,150,2013-09-22 04:15:00
11:35 PM,59.0,48.2,67,29.86,10.0,SSE,8.1,-,N/A,,Unknown,150,2013-09-22 04:35:00
11:55 PM,57.2,48.2,72,29.86,10.0,SSE,9.2,-,N/A,,Unknown,150,2013-09-22 04:55:00